When you browse on this site, cookies collect data to enhance your experience and personalize the content and advertising you see.
Visit our Privacy Policy to learn more. By continuing to use the site, you agree to this use of cookies and data.
  • En España
  • Lista de países
  • Para 7 días
  • Temperatura del agua
  • Mapa Satelital
  • El tiempo en el mapa
  • Informadores
  • user-avatar
    Iniciar sesión

    Tiempo cada hora Ondjiwa

    Hoy, 24 Marzo, Domingo

    Tiempo Temperatura Precipitaciones Viento Presión Humedad
    00:00 +27°C° 0 mm 3 mps 667 mmHg 42%
    01:00 +27°C° 0 mm 4 mps 667 mmHg 44%
    02:00 +26°C° 0 mm 3 mps 667 mmHg 45%
    03:00 +26°C° 0 mm 2 mps 667 mmHg 46%
    04:00 +26°C° 0 mm 2 mps 667 mmHg 47%
    05:00 +26°C° 0 mm 1 mps 667 mmHg 47%
    06:00 +26°C° 0 mm 1 mps 667 mmHg 46%
    07:00 +26°C° 0 mm 1 mps 668 mmHg 46%
    08:00 +27°C° 0 mm 2 mps 668 mmHg 42%
    09:00 +28°C° 0 mm 2 mps 668 mmHg 38%
    10:00 +29°C° 0 mm 3 mps 668 mmHg 33%
    11:00 +32°C° 0 mm 2 mps 668 mmHg 29%
    12:00 +36°C° 0 mm 2 mps 668 mmHg 24%
    13:00 +39°C° 0 mm 2 mps 668 mmHg 19%
    14:00 +38°C° 0 mm 2 mps 668 mmHg 19%
    15:00 +38°C° 0 mm 2 mps 667 mmHg 19%
    16:00 +37°C° 0 mm 2 mps 667 mmHg 20%
    17:00 +35°C° 0 mm 2 mps 666 mmHg 22%
    18:00 +32°C° 0 mm 2 mps 666 mmHg 25%
    19:00 +30°C° 0 mm 2 mps 666 mmHg 28%
    20:00 +30°C° 0 mm 2 mps 666 mmHg 28%
    21:00 +30°C° 0 mm 2 mps 667 mmHg 29%
    22:00 +29°C° 0 mm 1 mps 667 mmHg 29%
    23:00 +29°C° 0 mm 1 mps 667 mmHg 30%

    Mañana, 25 Marzo, Lunes

    Tiempo Temperatura Precipitaciones Viento Presión Humedad
    00:00 +29°C° 0 mm 1 mps 667 mmHg 30%
    01:00 +28°C° 0 mm 1 mps 667 mmHg 31%
    02:00 +27°C° 0 mm 1 mps 666 mmHg 33%
    03:00 +27°C° 0 mm 1 mps 666 mmHg 34%
    04:00 +26°C° 0 mm 2 mps 665 mmHg 36%
    05:00 +25°C° 0 mm 2 mps 666 mmHg 38%
    06:00 +25°C° 0 mm 1 mps 666 mmHg 39%
    07:00 +25°C° 0 mm 1 mps 666 mmHg 41%
    08:00 +28°C° 0 mm 1 mps 667 mmHg 35%
    09:00 +31°C° 0 mm 2 mps 668 mmHg 29%
    10:00 +35°C° 0 mm 2 mps 669 mmHg 23%
    11:00 +37°C° 0 mm 3 mps 668 mmHg 20%
    12:00 +38°C° 0 mm 3 mps 668 mmHg 18%
    13:00 +40°C° 0 mm 3 mps 667 mmHg 16%
    14:00 +38°C° 0 mm 3 mps 666 mmHg 18%
    15:00 +37°C° 0 mm 2 mps 666 mmHg 20%
    16:00 +36°C° 0 mm 2 mps 665 mmHg 23%
    17:00 +35°C° 0 mm 2 mps 665 mmHg 24%
    18:00 +33°C° 0 mm 1 mps 665 mmHg 24%
    19:00 +31°C° 0 mm 1 mps 665 mmHg 25%
    20:00 +31°C° 0 mm 1 mps 665 mmHg 26%
    21:00 +30°C° 0 mm 2 mps 666 mmHg 27%
    22:00 +30°C° 0 mm 2 mps 666 mmHg 28%
    23:00 +29°C° 0 mm 2 mps 666 mmHg 30%

    Pasado mañana, 26 Marzo, Martes

    Tiempo Temperatura Precipitaciones Viento Presión Humedad
    00:00 +28°C° 0 mm 2 mps 666 mmHg 33%
    01:00 +27°C° 0 mm 2 mps 666 mmHg 36%
    02:00 +27°C° 0 mm 2 mps 666 mmHg 39%
    03:00 +26°C° 0 mm 1 mps 665 mmHg 41%
    04:00 +26°C° 0 mm 1 mps 665 mmHg 43%
    05:00 +25°C° 0.1 mm 1 mps 666 mmHg 46%
    06:00 +25°C° 0.1 mm 1 mps 666 mmHg 49%
    07:00 +25°C° 0.1 mm 1 mps 666 mmHg 53%
    08:00 +26°C° 0.1 mm 2 mps 667 mmHg 51%
    09:00 +26°C° 0.1 mm 2 mps 667 mmHg 49%
    10:00 +27°C° 0.1 mm 2 mps 667 mmHg 48%
    11:00 +30°C° 0 mm 2 mps 667 mmHg 41%
    12:00 +33°C° 0 mm 1 mps 667 mmHg 34%
    13:00 +36°C° 0 mm 1 mps 668 mmHg 27%
    14:00 +35°C° 0 mm 1 mps 667 mmHg 27%
    15:00 +35°C° 0 mm 1 mps 667 mmHg 27%
    16:00 +35°C° 0 mm 1 mps 666 mmHg 28%
    17:00 +33°C° 0 mm 1 mps 666 mmHg 31%
    18:00 +31°C° 0 mm 2 mps 666 mmHg 34%
    19:00 +30°C° 0 mm 2 mps 666 mmHg 38%
    20:00 +29°C° 0.4 mm 2 mps 667 mmHg 41%
    21:00 +28°C° 0.4 mm 3 mps 667 mmHg 44%
    22:00 +27°C° 0.4 mm 3 mps 668 mmHg 48%
    23:00 +26°C° 0.2 mm 2 mps 668 mmHg 53%

    27 Marzo, Miércoles

    Tiempo Temperatura Precipitaciones Viento Presión Humedad
    00:00 +25°C° 0.2 mm 2 mps 667 mmHg 58%
    01:00 +24°C° 0.2 mm 1 mps 667 mmHg 63%
    02:00 +24°C° 0.5 mm 1 mps 667 mmHg 67%
    03:00 +23°C° 0.5 mm 1 mps 667 mmHg 71%
    04:00 +23°C° 0.5 mm 1 mps 667 mmHg 74%
    05:00 +23°C° 0.1 mm 1 mps 667 mmHg 74%
    06:00 +23°C° 0.1 mm 1 mps 668 mmHg 74%
    07:00 +23°C° 0.1 mm 2 mps 668 mmHg 74%
    08:00 +26°C° 0 mm 1 mps 669 mmHg 65%
    09:00 +28°C° 0 mm 1 mps 670 mmHg 55%
    10:00 +30°C° 0 mm 1 mps 670 mmHg 46%
    11:00 +32°C° 0 mm 1 mps 670 mmHg 39%
    12:00 +35°C° 0 mm 1 mps 670 mmHg 33%
    13:00 +35°C° 0 mm 0 mps 670 mmHg 27%
    14:00 +36°C° 0 mm 1 mps 669 mmHg 28%
    15:00 +35°C° 0 mm 1 mps 668 mmHg 28%
    16:00 +35°C° 0 mm 2 mps 668 mmHg 29%
    17:00 +34°C° 0 mm 2 mps 668 mmHg 32%
    18:00 +31°C° 0 mm 1 mps 668 mmHg 36%
    19:00 +29°C° 0 mm 1 mps 668 mmHg 39%
    20:00 +28°C° 0 mm 1 mps 668 mmHg 41%
    21:00 +28°C° 0 mm 1 mps 668 mmHg 44%
    22:00 +27°C° 0 mm 1 mps 669 mmHg 46%
    23:00 +27°C° 0 mm 1 mps 669 mmHg 47%

    28 Marzo, Jueves

    Tiempo Temperatura Precipitaciones Viento Presión Humedad
    00:00 +26°C° 0 mm 1 mps 669 mmHg 48%
    01:00 +26°C° 0 mm 2 mps 669 mmHg 49%
    02:00 +26°C° 0 mm 2 mps 668 mmHg 51%
    03:00 +25°C° 0 mm 2 mps 668 mmHg 53%
    04:00 +25°C° 0 mm 1 mps 668 mmHg 55%
    05:00 +25°C° 0 mm 1 mps 668 mmHg 55%
    06:00 +25°C° 0 mm 1 mps 669 mmHg 56%
    07:00 +25°C° 0 mm 1 mps 670 mmHg 56%
    08:00 +28°C° 0 mm 1 mps 670 mmHg 50%
    09:00 +30°C° 0 mm 2 mps 670 mmHg 43%
    10:00 +32°C° 0 mm 2 mps 671 mmHg 37%
    11:00 +34°C° 0 mm 3 mps 670 mmHg 32%
    12:00 +36°C° 0 mm 4 mps 670 mmHg 28%
    13:00 +38°C° 0 mm 4 mps 669 mmHg 23%
    14:00 +37°C° 0 mm 4 mps 669 mmHg 23%
    15:00 +37°C° 0 mm 4 mps 668 mmHg 22%
    16:00 +37°C° 0 mm 3 mps 668 mmHg 22%
    17:00 +35°C° 0 mm 3 mps 668 mmHg 26%
    18:00 +33°C° 0 mm 3 mps 668 mmHg 30%
    19:00 +30°C° 0 mm 3 mps 668 mmHg 34%
    20:00 +29°C° 0 mm 3 mps 668 mmHg 36%
    21:00 +29°C° 0 mm 2 mps 668 mmHg 38%
    22:00 +28°C° 0 mm 2 mps 668 mmHg 40%
    23:00 +27°C° 0 mm 2 mps 668 mmHg 42%

    29 Marzo, Viernes

    Tiempo Temperatura Precipitaciones Viento Presión Humedad
    00:00 +27°C° 0 mm 2 mps 667 mmHg 43%
    01:00 +27°C° 0 mm 1 mps 667 mmHg 44%
    02:00 +26°C° 0 mm 2 mps 667 mmHg 46%
    03:00 +25°C° 0 mm 2 mps 667 mmHg 48%
    04:00 +25°C° 0 mm 2 mps 667 mmHg 50%
    05:00 +25°C° 0 mm 2 mps 667 mmHg 50%
    06:00 +25°C° 0 mm 2 mps 668 mmHg 51%
    07:00 +25°C° 0 mm 1 mps 668 mmHg 51%
    08:00 +28°C° 0 mm 1 mps 669 mmHg 44%
    09:00 +31°C° 0 mm 2 mps 669 mmHg 36%
    10:00 +34°C° 0 mm 2 mps 670 mmHg 29%
    11:00 +36°C° 0 mm 2 mps 669 mmHg 25%
    12:00 +37°C° 0 mm 3 mps 669 mmHg 21%
    13:00 +40°C° 0 mm 4 mps 668 mmHg 17%
    14:00 +38°C° 0 mm 3 mps 668 mmHg 19%
    15:00 +37°C° 0 mm 2 mps 667 mmHg 20%
    16:00 +36°C° 0 mm 2 mps 667 mmHg 22%
    17:00 +35°C° 0 mm 2 mps 667 mmHg 24%
    18:00 +32°C° 0 mm 2 mps 667 mmHg 26%
    19:00 +31°C° 0 mm 3 mps 667 mmHg 29%
    20:00 +30°C° 0 mm 3 mps 667 mmHg 31%
    21:00 +29°C° 0 mm 2 mps 667 mmHg 33%
    22:00 +28°C° 0 mm 2 mps 667 mmHg 36%
    23:00 +27°C° 0 mm 2 mps 667 mmHg 37%
    Mostrar más